Location: El Manguito
(10.2358°N, 67.3634°W)
Time: 23:23:46
(UTC+00:00)

Aurora 2 Rocket - Pass Details

Date: 15 December 2025
Orbit: 385 x 1539 km, 25.0° (Epoch: 23 January)

Event Time Altitude Azimuth Distance (km) Brightness Sun altitude
Exits shadow 07:48:24 27° 58° (ENE) 1,923 5.2 -39.8°
Drops below altitude 10° 07:51:03 10° 62° (ENE) 2,744 6.2 -39.2°
Sets 07:53:22 0° 63° (ENE) 3,528 6.9 -38.6°
